Date,TemperatureHighF,TemperatureAvgF,TemperatureLowF,DewpointHighF,DewpointAvgF,DewpointLowF,HumidityHigh,HumidityAvg,HumidityLow,PressureMaxIn,PressureMinIn,WindSpeedMaxMPH,WindSpeedAvgMPH,GustSpeedMaxMPH,PrecipitationSumIn
2014-1-1,62,52,43,58,51,42,98,93,84,30.31,30.00,1,0,1,0.11
2014-1-2,57,48,36,57,41,-100,98,83,68,30.27,29.87,2,-41,7,0.12
2014-1-3,43,34,28,29,22,19,79,63,42,30.41,30.27,2,0,9,0.00
2014-1-4,58,45,31,49,37,22,85,74,67,30.28,30.02,1,0,3,0.00
2014-1-5,67,56,47,60,50,-100,93,85,74,30.03,29.84,2,-9,5,0.01
2014-1-6,47,33,25,43,20,9,90,62,42,30.54,29.99,3,1,6,0.00
2014-1-7,32,25,18,13,8,5,60,49,35,30.63,30.48,1,0,4,0.00
2014-1-8,42,32,22,30,19,9,73,59,45,30.52,30.32,1,0,2,0.00
2014-1-9,58,45,35,48,34,20,94,67,51,30.35,30.18,0,0,2,0.00
2014-1-10,68,56,50,67,50,-100,99,89,81,30.19,29.90,1,-36,5,0.00
2014-1-11,68,60,47,68,54,-100,99,83,53,30.07,29.79,4,-8,5,0.22
2014-1-12,58,49,41,48,43,37,92,78,63,30.20,30.06,1,0,3,0.00
2014-1-13,60,55,50,60,51,-100,98,91,84,30.10,29.83,0,-23,2,0.64
2014-1-14,58,52,44,57,48,42,98,88,62,30.07,29.85,1,0,2,0.00
2014-1-15,52,46,37,43,35,24,96,68,42,30.17,30.01,2,0,4,0.00
2014-1-16,48,43,29,44,32,21,87,68,46,30.21,30.07,2,0,4,0.00
2014-1-17,57,49,42,47,37,-100,95,68,43,30.20,30.05,1,-9,3,0.00
2014-1-18,50,41,29,42,29,-100,91,64,39,30.30,30.08,2,-9,3,0.00
2014-1-19,58,50,43,49,44,40,97,83,53,30.20,30.05,1,0,2,0.07
2014-1-20,60,49,40,54,45,38,98,87,60,30.11,29.94,2,0,4,0.00
2014-1-21,56,50,36,55,39,24,98,69,39,30.16,29.87,2,1,5,0.00
2014-1-22,45,36,28,34,25,18,86,64,40,30.23,30.12,1,0,4,0.00
2014-1-23,53,43,35,35,28,-100,89,58,37,30.52,30.18,1,-9,5,0.00
2014-1-24,40,34,32,25,18,13,73,53,39,30.58,30.28,2,0,10,0.00
2014-1-25,52,43,33,44,38,24,94,85,70,30.29,29.98,2,0,4,0.02
2014-1-26,57,46,38,48,40,-100,96,84,54,30.05,29.88,1,-14,2,0.00
2014-1-27,65,57,47,60,52,-100,98,85,48,30.06,29.86,2,-9,4,0.11
2014-1-28,47,33,25,29,23,15,93,70,41,30.27,30.03,2,1,13,0.09
2014-1-29,32,28,23,21,14,12,85,57,43,30.41,30.25,1,0,3,0.00
2014-1-30,41,31,21,32,22,10,91,72,55,30.32,30.14,1,0,5,0.09
2014-1-31,52,41,29,45,37,27,96,86,70,30.19,30.06,1,0,1,0.22
2014-2-1,70,56,42,61,52,-100,98,90,71,30.08,30.01,2,-10,3,0.00
2014-2-2,68,62,58,67,59,-100,98,93,87,30.06,29.92,2,-20,6,0.01
2014-2-3,66,52,45,65,51,44,99,94,84,30.10,29.92,2,1,5,0.22
2014-2-4,70,57,45,68,55,-100,98,94,86,30.06,29.86,4,-9,7,0.09
2014-2-5,68,51,39,67,45,32,98,83,66,30.24,29.87,3,1,10,0.05
2014-2-6,39,36,31,33,30,28,91,80,72,30.32,30.21,2,1,6,0.01
2014-2-7,54,42,30,42,36,28,92,79,62,30.32,30.17,2,0,5,0.01
2014-2-8,61,48,40,50,42,-100,96,85,62,30.21,30.09,1,-9,2,0.12
2014-2-9,64,50,42,55,44,-100,98,87,69,30.17,30.04,1,-32,2,0.00
2014-2-10,65,53,50,61,46,-100,99,89,85,30.10,30.00,2,-54,5,0.00
2014-2-11,51,46,43,49,44,-100,97,94,93,30.09,29.95,2,-9,7,0.28
2014-2-12,47,45,42,46,44,40,98,97,95,29.97,29.76,2,0,6,1.14
2014-2-13,51,44,38,43,40,35,95,87,65,30.03,29.86,1,0,5,0.00
2014-2-14,56,49,39,53,45,38,97,88,68,30.00,29.81,3,1,6,0.01
2014-2-15,56,48,42,47,41,37,95,77,49,30.16,29.89,1,0,7,0.00
2014-2-16,64,51,40,53,45,36,98,83,40,30.18,30.09,2,0,3,0.00
2014-2-17,71,59,50,64,52,-100,98,87,74,30.14,30.08,3,-38,5,0.00
2014-2-18,69,56,59,66,44,-100,98,85,87,30.16,30.05,3,-106,5,0.01
2014-2-19,71,66,61,67,64,60,98,95,85,30.09,29.97,2,0,4,0.00
2014-2-20,77,70,65,70,67,64,97,91,78,29.99,29.86,4,1,7,0.00
2014-2-21,70,56,48,69,39,-100,97,61,33,30.08,29.79,4,-24,10,1.16
2014-2-22,67,55,46,50,41,32,79,60,36,30.14,29.99,2,0,4,0.00
2014-2-23,67,59,55,66,54,-100,98,91,70,30.02,29.91,1,-36,3,0.41
2014-2-24,67,61,56,61,58,55,99,92,73,30.10,29.96,2,0,5,0.00
2014-2-25,72,62,54,62,58,53,98,89,52,30.06,29.88,2,0,4,0.01
2014-2-26,62,47,40,62,42,-100,98,87,72,30.01,29.81,2,-14,10,1.02
2014-2-27,51,42,32,33,27,20,76,58,36,30.08,29.95,1,0,6,0.00
2014-2-28,58,48,35,48,37,26,79,65,38,30.11,30.00,2,0,4,0.00
2014-3-1,70,60,52,61,54,-100,95,82,70,30.17,30.05,2,-9,4,0.00
2014-3-2,72,62,54,62,58,54,98,88,67,30.15,29.94,2,0,4,0.00
2014-3-3,64,51,34,62,47,29,97,86,72,30.15,29.87,2,1,9,0.00
2014-3-4,40,38,34,39,34,29,96,88,80,30.18,30.05,2,0,3,0.23
2014-3-5,54,44,40,51,41,-100,97,93,84,30.09,29.97,2,-18,5,0.08
2014-3-6,56,52,45,55,51,44,97,96,94,29.98,29.81,2,0,6,0.85
2014-3-7,57,48,42,49,44,40,95,86,72,30.05,29.93,2,0,9,0.00
2014-3-8,66,55,44,57,51,43,98,87,69,30.17,30.04,2,0,3,0.00
2014-3-9,71,60,53,60,54,-100,98,84,58,30.22,30.08,1,-12,2,0.00
2014-3-10,77,61,52,61,56,50,98,86,55,30.13,29.94,2,0,5,0.00
2014-3-11,68,62,58,66,61,57,98,95,89,29.94,29.68,1,0,3,0.09
2014-3-12,66,60,49,62,55,37,98,82,62,30.08,29.66,3,0,5,0.00
2014-3-13,63,50,38,47,34,-100,89,62,41,30.26,30.08,2,-36,7,0.00
2014-3-14,70,56,42,53,47,38,93,75,48,30.26,30.10,2,0,7,0.00
2014-3-15,68,61,56,63,59,53,97,93,82,30.09,29.85,1,0,4,0.19
2014-3-16,70,63,60,68,59,-100,99,94,93,29.84,29.58,5,-23,10,1.51
2014-3-17,60,52,47,59,47,-100,98,90,82,29.81,29.60,4,-23,4,0.07
2014-3-18,58,50,44,51,46,42,95,88,74,30.01,29.79,2,0,5,0.00
2014-3-19,70,51,47,60,38,-100,98,78,66,30.12,29.98,2,-98,3,0.00
2014-3-20,74,61,54,61,53,-100,98,79,48,30.11,30.00,1,-12,7,0.00
2014-3-21,76,61,48,59,51,40,93,71,38,30.09,29.98,2,0,3,0.00
2014-3-22,78,63,56,65,58,-100,97,86,49,30.04,29.94,2,-12,4,0.00
2014-3-23,73,64,54,69,60,48,99,88,72,30.13,29.93,2,0,6,0.09
2014-3-24,66,58,51,53,48,42,85,70,52,30.11,29.92,2,0,6,0.00
2014-3-25,65,56,48,52,38,29,82,54,34,30.23,29.95,2,0,5,0.00
2014-3-26,59,49,37,39,32,26,74,53,33,30.37,30.19,2,0,5,0.00
2014-3-27,75,59,46,62,49,-100,96,73,54,30.22,29.99,2,-23,6,0.10
2014-3-28,65,59,59,64,55,-100,99,94,96,30.03,29.84,2,-35,5,2.82
2014-3-29,70,63,57,63,57,46,99,83,54,30.14,29.80,1,0,3,1.01
2014-3-30,69,57,45,54,46,41,94,71,41,30.23,30.09,1,0,3,0.00
2014-3-31,76,59,47,58,50,44,96,75,36,30.16,30.06,2,0,4,0.00
2014-4-1,74,56,52,65,44,-100,96,79,72,30.14,30.06,3,-81,3,0.00
2014-4-2,82,68,59,70,62,-100,98,86,63,30.10,30.03,3,-11,7,0.00
2014-4-3,82,69,65,71,60,-100,97,80,60,30.04,29.92,2,-38,5,0.00
2014-4-4,81,69,66,72,65,-100,98,90,67,30.01,29.85,3,-12,4,0.13
2014-4-5,67,61,58,65,57,-100,98,89,69,30.03,29.92,1,-12,8,0.65
2014-4-6,73,64,56,72,64,56,99,97,91,29.95,29.71,1,0,5,0.16
2014-4-7,75,70,59,74,67,52,100,91,76,29.83,29.61,3,0,6,1.40
2014-4-8,68,58,49,56,51,47,95,80,58,29.95,29.79,1,0,6,0.15
2014-4-9,71,60,51,56,51,44,92,73,40,30.18,29.95,1,0,4,0.00
2014-4-10,76,63,52,65,56,50,97,79,56,30.24,30.16,1,0,3,0.00
2014-4-11,79,64,56,68,56,-100,95,81,61,30.21,30.09,1,-25,2,0.00
2014-4-12,85,69,60,70,61,56,98,78,51,30.15,30.04,0,0,2,0.00
2014-4-13,84,69,61,70,60,-100,98,80,53,30.07,29.92,2,-25,4,0.00
2014-4-14,79,65,65,71,56,-100,99,86,74,29.92,29.69,1,-61,5,4.88
2014-4-15,65,53,47,65,45,-100,99,79,51,30.15,29.73,2,-12,10,0.58
2014-4-16,65,52,39,50,42,34,90,71,50,30.22,30.09,1,0,5,0.00
2014-4-17,74,62,48,63,56,46,95,81,64,30.20,30.10,1,0,6,0.14
2014-4-18,63,59,57,60,56,-100,97,92,86,30.12,29.98,6,-12,6,0.55
2014-4-19,76,64,55,62,52,-100,96,72,46,30.09,29.98,2,-24,5,0.03
2014-4-20,75,62,54,61,50,-100,94,75,57,30.16,30.05,4,-34,7,0.00
2014-4-21,76,63,54,66,58,-100,97,86,68,30.13,29.98,1,-12,1,0.00
2014-4-22,80,67,59,70,61,-100,98,86,67,29.97,29.82,1,-22,3,0.00
2014-4-23,85,69,61,74,64,-100,98,86,61,29.94,29.85,1,-12,3,0.00
2014-4-24,83,71,62,74,67,61,98,89,73,29.97,29.86,2,0,4,0.00
2014-4-25,87,75,69,76,71,68,96,88,64,29.95,29.88,1,0,4,0.00
2014-4-26,85,75,68,77,71,67,98,90,76,29.98,29.88,1,0,4,0.00
2014-4-27,84,76,70,75,71,68,98,87,69,29.92,29.79,2,0,4,0.00
2014-4-28,85,72,74,78,61,-100,95,82,78,29.83,29.64,4,-74,10,0.00
2014-4-29,77,67,63,75,66,62,99,98,81,29.80,29.64,2,0,10,9.62
2014-4-30,79,70,64,72,64,57,99,85,66,30.00,29.68,1,0,2,2.07
2014-5-1,70,63,56,58,54,49,84,73,56,30.07,29.93,1,0,3,0.01
2014-5-2,75,65,58,64,57,50,92,77,44,29.99,29.88,0,0,1,0.00
2014-5-3,83,69,56,64,58,52,90,72,40,30.07,29.95,1,0,2,0.00
2014-5-4,89,72,60,71,63,-100,96,80,37,30.11,30.01,2,-12,3,0.00
2014-5-5,90,73,64,70,64,-100,97,77,40,30.05,29.95,1,-12,3,0.00
2014-5-6,85,72,66,71,64,-100,94,78,61,30.01,29.92,1,-12,3,0.00
2014-5-7,85,73,65,73,67,62,97,80,60,30.08,29.95,1,0,2,0.00
2014-5-8,89,71,66,76,60,-100,98,78,60,30.11,30.02,1,-58,4,0.00
2014-5-9,80,74,67,75,72,66,97,91,80,30.06,29.97,1,0,4,0.24
2014-5-10,83,74,67,78,73,66,99,94,82,30.02,29.94,1,0,2,0.84
2014-5-11,88,78,72,78,74,72,99,88,68,30.06,29.97,1,0,4,0.00
2014-5-12,87,78,72,77,73,68,98,85,65,30.10,29.98,0,0,3,0.00
2014-5-13,88,74,69,79,64,-100,98,81,64,30.06,29.96,0,-43,0,0.00
2014-5-14,80,69,62,76,65,-100,98,93,86,30.02,29.87,1,-23,3,1.19
2014-5-15,69,63,55,59,53,49,90,70,50,30.13,29.97,2,0,10,0.00
2014-5-16,81,67,53,64,58,50,95,74,46,30.16,30.04,1,0,2,0.00
2014-5-17,84,73,64,69,64,60,91,74,57,30.15,30.07,1,0,4,0.00
2014-5-18,87,73,63,72,65,60,96,77,47,30.16,30.09,1,0,4,0.00
2014-5-19,88,69,62,73,55,-100,98,74,53,30.16,30.09,1,-62,3,0.00
2014-5-20,90,74,63,75,69,62,98,85,54,30.18,30.10,1,0,3,0.00
2014-5-21,88,76,67,76,70,66,98,83,60,30.18,30.09,1,0,3,0.00
2014-5-22,90,77,66,77,70,64,97,81,51,30.17,30.04,1,0,2,0.00
2014-5-23,93,79,71,78,71,68,94,79,50,30.12,30.01,1,0,3,0.00
2014-5-24,91,79,73,77,72,69,93,81,51,30.10,30.00,1,0,2,0.00
2014-5-25,93,79,70,79,72,64,97,79,52,30.07,29.99,1,0,2,0.00
2014-5-26,92,79,69,80,69,-100,95,77,62,30.13,30.03,1,-31,3,0.00
2014-5-27,92,79,73,78,74,72,96,84,61,30.09,29.96,1,0,5,0.00
2014-5-28,86,76,70,78,70,-100,98,87,72,29.96,29.88,1,-12,3,2.33
2014-5-29,77,71,68,74,70,68,99,97,89,29.96,29.87,0,0,1,1.75
2014-5-30,87,74,70,78,72,68,98,94,69,29.97,29.89,1,0,2,0.69
2014-5-31,84,74,71,78,73,70,99,96,82,29.99,29.92,0,0,1,0.48
2014-6-1,87,77,70,79,73,70,99,89,72,30.03,29.95,0,0,0,0.00
2014-6-2,83,76,72,76,73,70,97,90,76,30.06,29.99,0,0,0,0.17
2014-6-3,81,74,72,78,71,-100,99,93,84,30.05,29.95,0,-12,0,0.36
2014-6-4,90,76,69,80,70,-100,99,86,67,29.97,29.88,0,-12,0,0.00
2014-6-5,90,76,70,81,68,-100,98,84,69,29.92,29.85,0,-31,1,0.00
2014-6-6,94,82,75,82,77,74,97,85,61,29.96,29.86,0,0,2,0.00
2014-6-7,94,75,79,84,61,-100,93,77,69,29.97,29.86,1,-101,2,0.00
2014-6-8,94,84,78,84,78,76,96,83,66,29.95,29.84,1,0,2,0.00
2014-6-9,91,82,78,82,76,-100,92,82,71,29.92,29.84,1,-8,4,0.00
2014-6-10,89,79,69,81,75,68,98,87,70,29.91,29.84,2,0,8,1.99
2014-6-11,84,75,68,78,70,-100,99,88,74,29.88,29.78,1,-12,2,0.25
2014-6-12,92,82,72,78,74,71,97,77,55,29.92,29.82,0,0,1,0.00
2014-6-13,79,74,70,76,70,-100,98,89,79,30.00,29.85,0,-12,0,0.86
2014-6-14,90,78,68,80,73,68,98,86,64,29.99,29.91,0,0,2,0.00
2014-6-15,91,77,71,80,68,-100,97,81,69,30.08,29.95,0,-39,1,0.00
2014-6-16,93,81,73,84,74,-100,97,84,68,30.15,30.04,0,-8,2,0.00
2014-6-17,96,82,75,82,74,-100,97,79,54,30.13,30.02,0,-12,1,0.00
2014-6-18,94,82,74,82,76,72,95,82,61,30.09,30.01,1,0,1,0.00
2014-6-19,94,80,73,82,76,71,96,88,62,30.10,30.02,0,0,4,0.14
2014-6-20,94,81,73,82,77,71,98,88,63,30.07,29.96,1,0,4,0.48
2014-6-21,94,79,73,82,70,-100,99,81,65,30.00,29.87,0,-36,1,0.00
2014-6-22,93,80,72,82,74,-100,94,85,68,29.95,29.83,1,-12,4,0.02
2014-6-23,83,76,71,79,73,70,98,92,82,30.02,29.87,1,0,1,0.26
2014-6-24,93,80,71,85,74,-100,99,86,70,30.05,29.99,1,-12,2,0.00
2014-6-25,89,80,72,80,76,70,99,86,62,30.09,30.00,1,0,2,0.29
2014-6-26,86,76,72,79,72,-100,98,89,72,30.09,29.96,2,-12,2,0.40
2014-6-27,91,80,72,84,76,72,99,90,71,30.10,29.98,1,0,2,0.45
2014-6-28,91,78,71,83,73,-100,98,88,75,30.12,30.01,0,-23,1,0.00
2014-6-29,96,84,76,84,79,76,97,85,67,30.15,30.04,1,0,3,0.00
2014-6-30,94,84,80,85,77,-100,94,83,67,30.07,29.94,0,-12,2,0.00
2014-7-1,97,85,79,85,78,-100,93,81,64,29.99,29.88,1,-12,4,0.00
2014-7-2,96,83,78,84,73,-100,91,77,65,29.97,29.89,1,-28,3,0.00
2014-7-3,90,79,72,79,69,-100,93,77,62,30.04,29.92,1,-24,4,0.00
2014-7-4,90,79,71,73,67,64,86,69,49,30.13,30.04,1,0,3,0.00
2014-7-5,91,79,68,76,69,64,89,74,54,30.12,30.03,0,0,0,0.00
2014-7-6,94,82,73,80,72,68,88,74,57,30.05,29.95,0,0,2,0.00
2014-7-7,95,81,75,76,70,-100,91,73,51,30.05,29.95,1,-20,3,0.00
2014-7-8,94,84,78,80,76,73,89,78,58,30.09,29.98,1,0,4,0.00
2014-7-9,92,80,77,82,73,-100,90,82,70,30.07,29.98,1,-13,4,0.00
2014-7-10,93,78,74,81,74,72,98,88,62,30.08,29.99,2,0,2,0.28
2014-7-11,93,80,73,82,76,71,99,87,64,30.11,30.03,1,0,3,0.00
2014-7-12,95,80,73,85,76,72,98,89,66,30.11,30.01,1,0,3,0.42
2014-7-13,91,80,72,82,76,71,98,90,70,30.09,29.98,0,0,2,0.34
2014-7-14,92,81,74,83,76,72,98,84,69,30.03,29.91,1,0,4,0.00
2014-7-15,88,80,74,80,76,73,98,91,76,29.96,29.84,1,0,2,0.36
2014-7-16,89,79,72,79,71,64,98,80,57,29.93,29.85,1,0,3,0.01
2014-7-17,89,78,66,76,68,61,88,72,51,29.99,29.92,0,0,1,0.00
2014-7-18,83,75,72,79,73,69,99,93,81,30.00,29.92,1,0,1,1.30
2014-7-19,81,77,74,80,76,73,99,97,89,30.01,29.91,0,0,2,0.93
2014-7-20,91,80,76,84,77,75,99,89,71,30.01,29.91,1,0,2,0.00
2014-7-21,92,81,75,82,77,74,98,88,68,30.00,29.92,1,0,2,0.05
2014-7-22,87,79,72,82,76,71,98,90,75,30.03,29.92,1,0,2,1.26
2014-7-23,90,76,70,83,73,70,99,92,77,30.03,29.93,1,0,2,0.03
2014-7-24,91,81,73,82,76,72,98,86,69,29.99,29.89,1,0,2,0.00
2014-7-25,93,79,75,83,75,74,97,87,67,30.00,29.93,1,0,1,0.30
2014-7-26,93,82,76,85,78,75,98,86,72,30.05,29.95,1,0,2,0.01
2014-7-27,95,86,80,85,80,77,93,83,69,30.06,29.95,0,0,2,0.00
2014-7-28,98,86,76,85,80,75,98,85,63,30.01,29.87,1,0,5,0.50
2014-7-29,89,79,70,77,72,67,98,79,55,30.01,29.91,1,0,4,0.01
2014-7-30,88,77,67,71,64,57,80,66,41,30.03,29.94,1,0,3,0.00
2014-7-31,90,78,66,77,67,61,90,72,48,30.01,29.93,0,0,1,0.00
2014-8-1,85,78,72,77,71,66,91,80,64,29.99,29.92,0,0,1,0.00
2014-8-2,92,82,74,82,75,71,93,80,62,29.98,29.90,0,0,1,0.00
2014-8-3,88,81,76,80,76,73,93,85,70,29.98,29.90,0,0,0,0.00
2014-8-4,93,80,74,82,74,68,96,82,66,30.00,29.90,2,0,3,0.00
2014-8-5,96,82,74,83,76,71,94,81,61,30.04,29.94,0,0,3,0.00
2014-8-6,96,84,78,84,78,76,95,83,62,30.03,29.93,0,0,1,0.00
2014-8-7,93,84,78,84,78,76,93,83,72,30.00,29.88,0,0,1,0.00
2014-8-8,94,83,80,84,78,77,93,84,62,30.00,29.90,0,0,3,0.00
2014-8-9,92,81,74,85,78,74,99,89,73,30.02,29.92,1,0,4,2.01
2014-8-10,88,80,74,82,76,73,98,89,76,30.03,29.91,2,0,2,0.01
2014-8-11,92,80,73,81,75,72,98,87,65,30.01,29.88,1,0,3,0.32
2014-8-12,90,79,73,81,76,72,98,90,69,29.93,29.85,1,0,3,0.08
2014-8-13,93,81,73,84,76,69,98,84,67,29.95,29.88,0,0,1,0.00
2014-8-14,92,79,70,78,70,64,89,74,54,30.00,29.91,1,0,1,0.00
2014-8-15,93,80,70,78,71,66,92,76,49,30.01,29.91,0,0,0,0.00
2014-8-16,94,83,74,84,77,72,97,83,66,30.02,29.94,1,0,2,0.00
2014-8-17,93,82,78,84,78,74,94,88,70,30.04,29.96,1,0,3,0.01
2014-8-18,92,81,73,84,78,72,98,92,71,30.00,29.90,1,0,2,0.78
2014-8-19,94,80,70,84,75,69,97,82,70,30.00,29.88,4,0,5,0.27
2014-8-20,92,75,71,84,72,70,99,81,66,30.07,29.91,1,0,2,0.00
2014-8-21,96,84,78,84,79,76,97,85,60,30.11,30.02,0,0,2,0.00
2014-8-22,99,86,79,84,79,76,94,80,59,30.07,29.95,1,0,4,0.00
2014-8-23,99,88,80,85,79,77,92,78,55,29.98,29.85,0,0,3,0.00
2014-8-24,98,86,77,84,78,73,91,77,51,29.89,29.78,1,0,4,0.00
2014-8-25,92,83,77,80,75,72,91,78,63,29.92,29.84,1,0,4,0.00
2014-8-26,92,83,71,78,73,65,88,73,55,29.99,29.91,1,0,6,0.00
2014-8-27,93,81,73,81,74,69,90,80,56,30.01,29.92,1,0,2,0.00
2014-8-28,94,81,74,82,75,72,95,83,62,29.98,29.88,0,0,3,0.00
2014-8-29,95,82,74,81,76,71,97,85,58,30.01,29.92,1,0,3,0.09
2014-8-30,94,82,75,83,77,74,99,88,62,30.04,29.98,1,0,3,0.15
2014-8-31,94,81,76,84,78,76,99,89,70,30.08,30.01,0,0,4,0.09
2014-9-1,95,83,76,82,78,74,97,86,65,30.06,29.97,1,0,2,0.00
2014-9-2,94,82,77,84,78,75,97,87,70,30.05,29.94,0,0,3,0.00
2014-9-3,92,81,74,81,75,71,97,82,63,30.01,29.93,1,0,4,0.22
2014-9-4,91,78,73,82,75,72,99,88,70,30.05,29.97,0,0,0,0.00
2014-9-5,82,76,73,77,73,72,94,92,86,30.11,30.01,0,0,0,0.00
2014-9-6,81,80,80,76,76,76,88,87,86,29.95,29.94,0,0,0,0.00
2014-9-7,95,82,77,83,76,74,95,82,61,29.96,29.86,1,0,1,0.00
2014-9-8,91,79,74,82,74,72,95,83,65,29.98,29.90,0,0,2,0.00
2014-9-9,89,79,76,82,76,74,98,90,75,30.00,29.91,0,0,1,0.02
2014-9-10,92,80,75,82,77,74,97,91,69,29.96,29.89,0,0,3,0.26
2014-9-11,89,79,75,82,77,74,98,94,77,29.98,29.90,0,0,0,0.74
2014-9-12,92,79,75,84,77,75,98,93,71,29.99,29.91,0,0,1,1.02
2014-9-13,87,80,74,81,76,72,99,89,74,30.05,29.94,1,0,5,0.01
2014-9-14,90,77,70,80,74,69,98,90,68,30.08,29.99,2,0,4,0.52
2014-9-15,88,78,74,82,76,74,98,91,79,30.08,30.00,0,0,4,0.01
2014-9-16,89,78,73,81,75,72,98,92,72,30.04,29.92,1,0,3,1.29
2014-9-17,88,75,71,81,72,70,99,87,74,29.93,29.84,0,0,1,0.00
2014-9-18,88,76,72,81,73,70,96,90,73,29.91,29.84,1,0,2,0.07
2014-9-19,84,76,72,77,72,69,96,86,68,29.96,29.86,0,0,3,0.01
2014-9-20,83,74,69,74,69,66,93,83,70,29.99,29.91,1,0,4,0.00
2014-9-21,87,75,70,76,69,66,91,81,62,30.00,29.92,0,0,2,0.00
2014-9-22,88,76,68,77,70,62,98,83,64,30.01,29.92,1,0,3,0.00
2014-9-23,83,71,62,68,61,55,82,72,52,30.07,29.99,1,0,6,0.00
2014-9-24,82,72,64,71,65,62,93,80,61,30.15,30.05,1,0,5,0.00
2014-9-25,80,71,63,70,65,60,92,82,65,30.16,30.03,1,0,4,0.00
2014-9-26,80,71,63,69,64,61,94,81,62,30.07,29.97,1,0,3,0.00
2014-9-27,81,73,66,74,69,63,95,87,77,30.01,29.94,1,0,6,0.00
2014-9-28,81,75,72,76,72,69,94,90,83,29.99,29.89,1,0,3,0.00
2014-9-29,83,76,72,76,73,71,95,90,79,29.89,29.79,1,0,6,0.00
2014-9-30,80,74,70,74,70,68,97,89,75,29.89,29.82,1,0,3,0.00
2014-10-1,84,75,67,76,71,66,96,89,74,29.94,29.85,0,0,1,0.00
2014-10-2,84,77,72,79,75,71,98,93,81,29.99,29.90,0,0,1,0.01
2014-10-3,79,76,71,78,74,66,98,92,81,29.98,29.86,1,0,3,0.34
2014-10-4,70,64,56,65,53,45,90,69,45,30.05,29.96,6,0,6,0.01
2014-10-5,73,60,51,56,50,46,89,70,47,30.06,29.97,1,0,3,0.00
2014-10-6,81,69,60,67,62,55,91,79,58,30.03,29.93,1,0,3,0.00
2014-10-7,82,73,65,75,69,62,96,88,76,30.04,29.95,1,0,2,0.00
2014-10-8,83,73,68,76,70,67,99,90,77,30.10,30.01,1,0,2,0.00
2014-10-9,84,75,68,78,72,68,99,92,81,30.08,29.98,1,0,2,0.00
2014-10-10,82,76,71,77,73,70,98,91,81,30.04,29.96,1,0,2,0.00
2014-10-11,84,75,70,77,72,69,99,91,78,30.02,29.93,1,0,3,0.00
2014-10-12,83,75,68,76,71,67,98,89,76,30.01,29.91,1,0,3,0.00
2014-10-13,84,77,72,78,74,71,98,92,81,29.95,29.75,1,0,3,0.52
2014-10-14,74,68,63,73,62,56,98,82,64,29.95,29.72,1,0,3,0.45
2014-10-15,73,67,62,59,54,50,84,65,46,29.99,29.88,0,0,1,0.00
2014-10-16,74,67,59,60,56,53,92,69,49,29.99,29.90,0,0,2,0.00
2014-10-17,76,66,55,66,60,54,96,83,59,30.01,29.90,0,0,2,0.00
2014-10-18,79,72,66,72,67,56,94,84,66,29.99,29.90,1,0,2,0.00
2014-10-19,72,62,56,57,54,52,89,74,50,30.09,29.99,1,0,4,0.00
2014-10-20,74,63,54,64,55,50,91,77,59,30.04,29.93,0,0,1,0.00
2014-10-21,76,64,54,62,56,51,91,73,54,30.02,29.92,1,0,2,0.00
2014-10-22,76,66,59,58,55,47,84,68,51,30.06,29.97,1,0,6,0.00
2014-10-23,71,62,52,55,50,45,79,66,47,30.08,29.98,1,0,4,0.00
2014-10-24,73,60,54,58,50,49,86,68,47,30.06,29.96,0,0,4,0.00
2014-10-25,75,63,52,60,54,47,87,73,53,30.10,29.99,1,0,4,0.00
2014-10-26,77,67,58,69,63,57,97,89,71,30.05,29.94,0,0,0,0.00
2014-10-27,77,69,62,71,66,61,99,92,78,30.04,29.98,1,0,3,0.00
2014-10-28,80,70,63,72,66,61,94,85,70,30.10,30.01,0,0,2,0.00
2014-10-29,79,71,65,72,68,62,97,89,77,30.06,29.94,1,0,5,0.00
2014-10-30,69,62,54,62,52,46,92,70,47,30.06,29.95,2,0,6,0.00
2014-10-31,71,60,49,58,50,43,88,71,52,30.09,29.88,2,0,6,0.00
2014-11-1,57,48,41,44,32,28,67,54,35,30.32,30.09,2,0,7,0.00
2014-11-2,60,50,37,42,38,34,88,65,46,30.41,30.27,1,0,2,0.00
2014-11-3,68,56,45,55,44,34,84,67,50,30.38,30.28,0,0,3,0.00
2014-11-4,72,63,51,64,56,44,94,80,71,30.27,30.16,0,0,3,0.00
2014-11-5,77,68,62,68,64,61,96,89,67,30.18,30.09,0,0,0,0.00
2014-11-6,67,64,58,66,60,47,97,87,65,30.12,30.06,1,0,3,0.01
2014-11-7,60,53,46,46,43,41,83,69,57,30.14,29.98,1,0,5,0.00
2014-11-8,60,52,47,50,45,40,89,76,61,30.04,29.92,0,0,2,0.00
2014-11-9,65,55,49,55,50,45,95,82,62,30.03,29.92,0,0,2,0.00
2014-11-10,67,56,45,58,52,43,96,88,68,30.04,29.92,0,0,2,0.00
2014-11-11,71,65,53,65,61,52,98,88,76,30.03,29.93,0,0,2,0.00
2014-11-12,65,60,50,62,57,46,98,91,83,30.12,29.97,1,0,5,0.00
2014-11-13,50,43,39,46,38,30,94,84,68,30.23,30.09,1,0,6,0.01
2014-11-14,47,39,32,31,27,24,73,62,44,30.30,30.19,1,0,5,0.00
2014-11-15,53,43,32,42,33,25,80,68,45,30.32,30.17,0,0,2,0.00
2014-11-16,73,63,48,68,58,42,96,86,77,30.17,29.79,1,0,2,0.01
2014-11-17,71,51,36,69,46,27,96,82,63,30.26,29.73,2,0,9,0.04
2014-11-18,45,36,31,28,24,21,84,63,38,30.44,30.26,2,0,9,0.00
2014-11-19,50,40,30,38,30,20,88,68,45,30.44,30.27,1,0,2,0.00
2014-11-20,61,49,40,52,45,37,96,85,65,30.29,30.18,0,0,1,0.00
2014-11-21,67,54,45,53,48,44,96,82,55,30.32,30.21,1,0,1,0.00
2014-11-22,69,58,49,60,53,41,96,82,68,30.26,29.87,1,0,6,0.01
2014-11-23,74,65,61,73,64,60,99,95,86,29.86,29.62,1,0,9,0.00
2014-11-24,71,64,57,68,61,46,99,89,67,30.00,29.72,1,0,2,0.00
2014-11-25,60,55,52,46,42,39,68,60,49,30.11,29.98,1,0,5,0.00
2014-12-1,72,63,56,64,60,55,98,89,71,30.33,30.22,0,0,1,0.00
2014-12-2,63,55,52,58,53,51,97,96,85,30.27,30.20,0,0,1,0.00
2014-12-5,77,68,59,70,65,58,99,92,76,30.23,30.15,1,0,3,0.00
2014-12-6,74,66,56,70,64,50,99,94,79,30.22,30.10,2,0,4,0.00
2014-12-7,61,54,48,50,47,44,87,78,66,30.28,30.14,1,0,6,0.00
2014-12-8,64,54,48,54,48,45,89,80,62,30.22,30.12,1,0,5,0.00
2014-12-9,62,52,42,49,45,41,96,76,52,30.22,30.11,1,0,2,0.00
2014-12-10,54,46,39,41,38,35,86,73,58,30.25,30.13,1,0,2,0.00
2014-12-11,56,46,38,43,39,35,91,77,59,30.28,30.15,0,0,2,0.00
2014-12-12,60,50,41,46,41,37,85,71,53,30.35,30.23,1,0,2,0.00
2014-12-13,63,53,43,50,45,40,89,75,56,30.26,30.15,1,0,4,0.00
2014-12-14,61,52,44,52,47,41,96,84,72,30.18,30.04,1,0,2,0.00
2014-12-15,69,59,45,64,56,44,97,89,74,30.08,29.98,1,0,3,0.00
2014-12-16,64,59,48,62,51,41,97,76,57,30.21,30.00,0,0,2,0.00
2014-12-17,57,48,40,47,42,36,90,79,63,30.26,30.13,0,0,2,0.00
2014-12-18,59,52,43,52,46,40,90,82,69,30.20,30.07,0,0,2,0.00
2014-12-19,54,51,46,49,47,43,95,85,70,30.21,30.05,1,0,3,0.00
2014-12-23,71,69,66,70,67,65,99,96,89,29.71,29.55,1,0,4,1.23
2014-12-24,68,56,47,68,52,39,99,87,72,30.06,29.53,1,0,3,0.78
2014-12-25,52,46,39,44,41,37,94,83,61,30.26,30.05,0,0,2,0.00
2014-12-26,64,53,42,56,48,40,94,84,73,30.25,30.13,1,0,5,0.00